Temp
6 6 6 6 5 5 6 6 7 8 9 10 11 11 11 11 11 14 15 11 12 13 15 17 18 19 20 23 24 25 24 25 27 27 27 28 28 29 30 30 31 32 30 29 26
6 5 5 5 5 5 5 6 6 6 7 9 9 10 10 10 12 14 10 11 13 14 16 17 20 20 22 22 24 23 25 26 28 28 27 27 27 29 29 30 30 30 28 27 25
5 5 5 5 5 5 5 6 7 8 8 9 9 9 10 9 15 14 10 11 13 13 15 16 17 20 22 23 23 24 24 27 28 26 27 26 27 28 28 29 30 30 31 28 26
5 5 5 5 5 6 6 7 8 8 8 9 10 9 10 11 19 12 10 11 12 14 16 17 19 20 20 22 23 23 24 25 26 26 26 25 26 26 27 28 30 31 30 30 29
5 5 5 5 5 6 6 7 8 8 9 9 9 9 10 16 14 11 11 11 13 14 16 17 18 19 19 21 21 21 23 24 25 25 24 25 25 25 26 28 29 29 29 28 29
5 5 5 5 6 7 8 8 8 9 9 10 8 8 11 15 11 11 10 11 13 14 15 16 16 16 16 18 19 22 21 21 22 23 23 23 24 25 26 27 27 28 28 29 29
5 5 5 6 7 8 8 9 9 9 9 9 8 8 14 12 11 11 11 11 12 13 15 14 14 16 17 18 19 18 18 21 22 23 22 23 22 24 26 27 26 27 28 29 30
5 5 5 6 7 8 9 9 8 8 8 8 8 9 13 10 11 12 12 13 12 12 13 13 13 15 16 18 18 19 20 20 23 25 24 23 21 25 27 27 27 27 28 28 29
4 4 5 6 8 9 10 9 9 8 8 7 9 11 13 11 13 11 11 12 12 12 13 13 14 16 16 16 18 19 19 21 22 24 23 23 22 25 26 26 27 27 28 29 29
4 4 5 6 7 9 10 9 9 8 8 9 10 13 14 13 12 11 11 10 12 13 14 15 15 15 16 17 16 19 19 20 20 22 22 21 22 24 25 25 26 27 28 29 30
4 4 5 6 7 8 8 10 13 14 11 10 11 11 13 12 11 13 11 12 13 14 14 14 15 15 16 17 17 17 17 17 19 20 20 20 20 21 23 24 24 26 27 28 29
4 4 5 6 7 7 8 9 7 6 11 10 10 10 10 10 13 14 12 13 13 13 13 14 13 15 15 15 15 15 15 16 18 19 19 19 19 21 22 22 23 24 25 27 28
4 4 5 6 7 6 7 6 5 5 11 12 12 13 13 12 13 14 13 13 13 13 13 12 14 14 13 14 14 15 15 15 16 17 17 17 18 19 21 22 22 23 23 25 27
4 4 5 7 7 5 7 5 5 5 13 12 13 13 14 13 13 13 12 12 13 12 13 13 14 13 13 13 13 13 16 15 15 15 15 18 17 19 21 22 23 23 23 24 25
4 4 4 5 6 8 6 5 5 6 13 11 13 13 14 13 13 14 13 13 12 13 12 12 13 13 13 13 14 13 15 14 13 14 15 16 16 18 20 20 21 23 24 24 25
5 4 4 5 5 5 5 5 6 10 10 11 12 12 12 12 13 13 13 13 13 11 13 11 13 13 13 13 14 14 13 14 14 14 13 15 16 18 20 21 22 23 24 25 26
5 5 5 4 7 4 4 8 9 11 10 10 10 11 11 11 11 12 11 11 9 8 11 13 14 13 12 13 15 14 12 12 13 13 13 18 17 19 20 21 23 23 24 24 24
5 5 5 4 4 4 7 9 11 8 10 10 10 11 10 10 11 10 10 10 9 8 9 10 10 12 13 12 12 13 12 10 10 14 16 18 17 19 22 22 22 22 23 23 24
6 5 5 4 5 5 9 9 8 10 9 9 11 10 10 10 9 10 10 9 8 8 7 8 9 12 13 14 13 12 11 12 10 13 12 16 18 20 18 18 16 18 21 22 24
6 7 6 4 5 7 8 7 9 9 9 9 9 9 9 10 9 10 9 9 8 9 8 8 7 12 13 14 14 11 12 10 11 10 11 15 16 16 11 12 12 12 13 18 20
6 9 5 5 5 7 7 7 8 8 9 8 9 9 9 8 9 9 9 10 8 8 9 8 7 10 12 11 10 11 10 10 9 10 10 11 14 9 13 13 12 10 10 13 18
7 6 5 5 7 4 6 7 6 8 9 8 8 8 9 9 9 9 8 9 10 9 7 8 6 7 10 12 11 11 9 9 8 9 10 11 13 15 16 15 10 8 9 11 15
6 7 5 5 6 5 7 7 7 8 8 8 8 9 9 8 7 8 9 10 9 8 8 7 7 6 9 11 9 7 7 7 7 8 9 9 13 17 16 15 12 8 8 10 11
6 5 6 6 7 7 7 7 7 7 7 8 8 8 8 8 8 7 8 9 8 8 8 7 6 6 7 7 7 6 7 7 7 7 10 10 12 14 15 13 13 10 9 8 10
5 3 5 5 4 7 7 6 7 6 7 8 8 8 7 6 7 7 8 8 8 9 8 7 5 6 6 7 8 8 8 8 8 9 8 11 13 13 12 11 12 11 8 8 10
4 4 4 6 6 6 6 6 6 7 6 7 7 7 7 5 5 4 6 6 7 8 7 7 5 6 6 8 8 8 10 10 11 12 12 13 12 9 8 11 10 9 8 8 8
4 3 6 4 6 5 6 7 6 6 7 7 7 6 6 7 7 7 7 6 6 6 6 6 5 5 5 8 8 6 9 11 12 13 12 10 8 8 8 10 9 9 8 9 8
Height
850 848 847 841 840 838 837 835 833 832 827 824 821 818 817 815 811 811 811 817 815 810 807 806 804 803 802 796 794 790 792 782 776 777 775 767 767 760 756 759 753 750 754 759 761
853 849 845 840 840 839 838 835 834 832 828 824 822 818 816 814 813 812 816 819 815 811 809 805 803 800 796 793 789 789 779 766 762 764 770 767 768 761 762 755 757 754 757 760 763
854 850 846 842 840 839 837 834 832 830 827 824 821 818 816 815 814 817 818 818 814 812 811 807 805 799 792 789 786 781 772 759 758 767 766 768 766 762 760 760 752 754 750 759 762
854 850 846 843 841 838 836 833 831 829 826 823 821 819 816 817 804 819 819 817 814 812 810 807 801 797 796 788 782 783 768 766 766 763 766 769 763 763 758 753 749 749 753 753 755
855 851 847 844 841 838 836 833 830 828 825 821 820 818 815 810 819 822 819 817 815 814 812 808 803 800 797 788 787 782 771 767 762 766 768 768 763 759 751 751 752 752 752 756 753
855 852 848 844 840 836 834 830 828 826 824 821 819 818 817 814 825 823 819 817 816 814 813 811 810 811 806 800 793 775 776 774 770 768 768 769 763 763 727 748 750 750 749 748 750
854 850 846 842 838 834 830 828 826 825 824 822 820 820 818 826 826 823 820 819 819 818 815 816 816 812 804 797 788 789 784 770 763 762 762 764 763 754 710 743 747 746 742 739 739
852 848 844 840 836 831 828 825 823 823 822 821 820 821 821 825 824 823 822 821 820 819 819 818 816 813 809 799 795 788 779 769 749 741 745 759 747 735 724 736 737 737 736 733 733
850 847 843 839 833 828 824 821 821 821 821 820 822 819 820 824 823 823 822 821 819 817 817 818 815 806 803 799 788 775 775 759 748 741 749 748 739 733 729 729 727 727 725 723 721
849 846 841 837 832 826 822 821 821 821 822 822 822 819 823 825 825 824 823 821 819 815 811 811 809 802 796 791 784 770 763 757 755 751 751 750 738 733 729 728 725 721 716 713 712
848 844 840 836 832 827 822 822 823 820 824 829 831 828 827 827 825 823 822 821 817 812 805 808 804 793 788 786 783 783 779 772 761 755 758 750 746 743 732 727 723 720 716 708 708
847 843 840 836 834 830 826 826 836 839 827 832 832 832 831 829 823 821 823 818 815 810 809 805 800 792 791 792 791 787 782 772 759 755 756 748 737 735 733 727 722 723 717 708 704
846 843 839 836 834 834 834 836 837 837 827 830 831 829 829 830 824 820 823 819 815 812 808 808 796 796 797 792 791 783 779 771 766 758 754 751 730 731 727 722 718 716 715 710 700
846 843 839 836 838 837 838 838 837 837 818 830 827 829 828 826 823 824 823 823 814 812 808 802 796 799 793 792 789 785 772 772 769 761 750 738 721 717 712 703 700 702 705 701 697
845 843 840 837 840 838 842 839 838 839 807 834 827 831 827 826 825 819 823 818 814 808 810 804 797 792 788 786 785 781 774 772 770 760 747 738 731 712 709 707 701 688 686 689 688
844 842 841 840 840 841 840 839 840 829 828 831 830 830 827 825 823 822 821 820 815 811 802 804 796 795 787 785 781 779 777 767 760 751 749 732 727 702 696 691 687 683 678 674 676
844 841 840 840 841 839 838 838 830 817 840 834 834 831 829 828 824 823 822 820 824 824 802 791 781 790 792 782 772 771 773 763 747 745 733 706 709 690 688 684 675 673 669 670 672
843 841 841 841 840 839 838 833 819 844 834 838 836 830 829 833 827 827 826 822 829 828 816 806 796 787 788 787 782 774 774 779 764 731 715 698 703 682 671 669 671 671 666 666 667
842 843 844 842 841 840 836 826 841 836 842 841 831 829 827 831 836 831 826 826 834 832 838 821 806 791 785 781 781 772 775 770 774 742 735 704 689 677 688 684 693 684 670 663 657
843 843 846 844 842 840 835 846 840 844 844 842 838 837 832 827 835 829 827 831 832 833 834 828 820 788 784 780 776 781 777 777 769 757 739 704 695 691 721 719 713 710 701 678 667
843 839 848 846 844 842 839 846 844 845 846 844 840 839 834 837 835 831 828 825 834 833 829 828 828 795 787 781 786 779 783 783 785 767 756 733 707 733 720 719 717 719 712 696 673
842 844 848 846 847 857 849 845 852 844 846 844 844 840 836 835 833 831 830 826 828 831 831 828 833 814 790 777 784 783 789 790 788 773 765 750 718 707 703 710 725 725 717 703 680
843 843 849 848 845 851 848 847 848 845 844 844 843 840 838 838 841 831 829 827 830 832 831 832 822 820 786 773 789 801 802 801 798 789 766 759 723 705 708 707 715 724 718 705 691
844 845 849 849 848 844 844 844 845 848 846 845 842 841 838 837 836 836 828 826 831 830 832 831 825 822 808 800 808 805 800 797 798 788 761 750 729 710 707 710 708 712 713 706 694
845 850 848 847 851 845 846 847 843 845 846 843 839 839 838 844 836 832 825 824 825 822 823 823 823 817 814 805 798 791 787 783 777 772 777 740 724 719 719 716 710 711 709 706 694
845 847 851 844 847 846 848 845 844 842 845 839 841 838 837 845 843 842 833 831 824 820 822 823 824 813 810 794 787 780 767 761 753 745 740 728 724 741 737 719 713 714 710 704 703
845 847 844 848 844 846 843 840 842 843 841 841 842 843 840 836 834 833 831 826 823 822 818 819 818 814 800 787 786 784 759 742 736 733 733 741 750 744 738 723 720 715 712 707 701
Wind_Speed
13 13 13 14 15 15 14 14 13 14 14 15 16 17 18 20 17 2 10 8 12 17 13 9 4 5 8 9 11 8 10 17 22 20 16 5 4 1 5 11 10 4 3 7 3
12 12 14 15 14 14 14 14 14 14 14 15 16 18 18 19 6 11 5 9 14 16 12 10 6 6 9 10 8 13 15 27 19 14 19 16 14 18 9 12 11 11 2 3 4
12 13 13 14 14 14 15 16 15 14 14 14 15 15 16 12 4 5 4 9 16 15 8 6 8 6 12 12 17 14 27 21 17 9 16 19 20 18 21 20 15 13 7 2 3
11 12 13 13 14 15 16 15 13 12 14 14 14 13 12 3 2 3 8 12 14 12 9 5 4 5 6 13 16 23 27 22 20 19 17 18 15 16 19 22 19 11 6 12 9
11 12 13 14 14 16 15 12 12 13 12 13 12 12 6 2 6 7 12 12 8 7 8 6 5 6 10 8 11 22 25 23 20 19 21 20 25 27 30 26 23 22 19 15 11
12 13 14 15 16 18 14 14 14 10 8 10 7 5 3 7 5 10 10 5 6 7 6 8 5 6 9 12 13 12 19 20 20 21 21 24 25 22 40 23 24 24 25 23 22
13 15 16 18 19 18 16 14 12 5 8 7 4 3 8 7 4 9 11 6 6 7 6 4 6 7 7 10 11 17 23 22 23 24 23 14 23 30 45 20 22 23 21 20 19
14 16 18 19 21 16 17 17 4 5 7 6 6 1 5 1 4 8 5 2 3 7 7 5 5 8 10 11 17 21 21 21 16 11 16 22 33 31 32 24 26 26 23 25 24
14 16 18 19 21 17 18 10 6 4 6 5 2 1 5 3 6 9 7 7 9 9 7 10 8 8 8 13 15 15 19 25 25 17 16 19 30 25 24 26 25 21 20 19 22
14 16 18 18 17 18 17 7 8 6 4 2 4 3 6 7 9 7 5 4 3 6 3 5 5 8 8 10 15 18 20 23 25 17 16 22 28 22 23 23 23 22 24 26 21
14 16 18 18 16 17 13 2 2 4 12 6 4 3 3 12 2 4 5 4 4 3 4 2 8 9 12 13 16 18 20 25 25 22 22 27 29 26 23 22 21 20 22 22 18
14 16 18 17 12 18 16 7 6 2 4 5 1 3 3 5 3 4 4 6 5 6 4 6 10 11 10 11 13 16 19 23 24 20 18 25 30 25 26 29 23 21 22 23 24
14 17 19 14 7 11 19 10 5 3 1 2 2 3 6 3 4 8 6 5 7 6 8 9 11 9 9 11 13 17 19 21 23 22 22 24 33 29 29 28 28 28 28 26 25
14 16 19 9 3 5 6 9 5 5 2 4 2 4 5 4 2 4 3 5 6 9 9 9 2 8 12 13 12 18 17 15 17 17 16 13 22 21 19 22 26 29 28 29 29
14 13 16 11 3 3 3 9 2 3 2 3 3 3 8 6 8 4 5 4 11 14 8 10 11 13 13 4 7 12 13 17 17 17 18 20 15 19 18 23 24 23 25 26 30
13 13 12 5 3 1 6 5 3 2 3 1 3 7 12 5 6 8 6 3 10 10 10 14 15 12 8 9 8 12 13 16 20 17 15 23 19 19 17 21 23 25 24 21 24
14 13 6 3 2 6 6 3 2 3 1 3 3 9 9 8 5 10 11 8 8 6 7 15 9 3 6 11 3 8 11 6 5 8 12 13 11 18 17 21 19 20 26 24 21
13 6 8 6 3 4 3 2 1 0 2 2 4 10 4 8 5 11 11 4 9 10 10 9 0 4 8 11 9 16 7 6 6 13 17 19 12 10 8 13 20 23 23 21 21
5 3 5 8 5 6 2 2 3 1 2 6 9 4 0 2 6 7 9 5 4 10 7 6 6 20 15 9 9 6 8 16 9 18 12 12 15 20 20 22 26 27 22 23 24
2 3 5 5 7 5 1 4 2 2 1 3 3 2 6 8 7 9 6 2 5 7 6 6 12 12 4 14 7 9 11 6 6 7 11 12 16 7 22 24 24 25 26 24 20
2 2 2 5 5 3 3 3 2 2 2 2 3 6 7 7 7 10 4 3 5 8 10 9 5 11 17 4 15 11 4 4 5 6 5 9 8 4 12 22 23 21 23 28 20
2 2 3 3 2 2 2 2 1 1 2 3 5 7 9 8 11 8 7 5 6 12 12 2 5 12 17 17 5 2 5 8 5 9 14 12 15 1 21 20 15 19 21 23 25
2 2 2 2 1 2 3 1 2 2 2 2 3 5 7 9 6 4 8 8 13 8 7 9 4 11 11 8 4 3 8 6 10 12 15 12 11 21 24 20 16 16 18 20 23
3 2 2 2 1 1 1 1 3 2 6 6 6 6 10 9 8 8 14 9 8 16 19 14 14 14 13 15 14 20 19 15 12 9 16 16 23 23 22 21 21 15 17 18 20
2 2 0 3 3 3 2 2 3 3 4 5 4 7 7 6 13 17 15 17 21 18 14 6 11 12 15 21 20 23 22 22 17 18 16 22 23 19 20 22 16 17 16 16 17
3 3 2 3 4 4 4 3 4 2 4 4 8 10 11 11 12 19 20 18 19 16 11 7 10 13 18 22 21 23 21 22 23 20 16 19 18 22 21 20 15 14 15 11 14
3 3 1 4 4 4 3 4 3 1 5 7 6 10 14 16 15 17 18 21 22 21 19 16 14 13 20 15 12 15 20 18 10 12 14 11 12 19 17 18 12 14 14 7 11
Wind_Direction
28 24 17 19 13 7 2 356 357 351 351 349 348 351 352 341 352 65 56 8 346 350 358 334 276 286 246 240 229 233 243 247 246 244 252 239 265 188 290 263 224 210 319 359 104
22 20 17 17 8 1 354 354 350 346 344 343 342 346 345 345 24 75 55 1 4 3 358 0 347 296 242 245 222 224 239 245 252 256 250 264 264 273 269 245 233 224 153 64 124
19 17 15 13 4 356 352 349 350 348 345 337 335 340 337 337 216 70 339 350 0 0 347 326 309 292 247 234 236 237 244 257 249 271 258 265 261 264 267 256 251 254 215 213 205
15 14 13 10 1 354 347 348 353 350 338 328 327 335 334 281 9 36 344 343 352 352 346 325 280 267 264 236 230 251 258 263 270 278 250 253 267 256 260 260 270 268 253 276 256
15 12 11 6 359 350 347 357 354 342 336 327 324 342 3 90 56 345 332 335 348 5 19 2 320 299 258 270 281 261 265 272 274 259 259 264 260 267 262 259 266 266 266 264 261
10 7 5 359 357 354 1 357 349 351 359 342 336 6 342 86 355 351 346 10 32 14 14 15 356 328 283 273 265 296 298 285 274 268 269 259 260 265 259 250 257 260 263 263 253
1 360 359 359 358 356 358 354 345 32 24 21 41 54 70 72 3 14 32 51 40 18 334 8 338 284 335 270 278 293 286 280 261 255 243 257 258 240 256 256 260 261 259 258 251
355 354 354 356 354 352 354 347 24 69 43 56 88 67 79 12 2 10 349 329 310 318 309 299 317 286 262 287 280 274 279 276 269 248 254 223 257 249 258 257 254 253 252 257 255
352 350 349 352 355 355 352 4 70 85 44 61 56 299 77 4 17 10 359 328 309 295 273 275 253 272 265 261 271 246 260 267 271 264 290 242 256 263 266 258 260 256 255 254 256
355 353 351 358 2 1 354 89 75 69 50 113 53 165 56 355 336 342 359 352 325 321 164 195 226 261 241 250 260 279 266 262 264 271 277 273 273 271 264 269 268 263 250 247 251
358 357 358 1 18 13 14 131 189 147 39 37 20 38 359 344 27 23 6 338 335 266 338 231 263 263 283 270 280 291 281 276 277 278 272 267 272 276 280 271 271 268 256 257 243
360 0 2 2 35 36 42 70 56 16 85 44 36 319 297 333 325 56 346 341 338 346 303 248 263 305 310 290 279 274 274 273 278 278 269 273 269 268 256 263 263 265 270 259 256
6 360 358 4 39 40 59 61 355 170 57 76 356 15 20 319 347 0 328 336 327 309 307 294 289 311 291 281 271 269 269 277 284 293 282 278 273 266 259 259 256 252 253 264 264
0 357 355 11 53 5 52 3 350 185 128 50 76 70 342 299 215 343 342 321 281 296 317 286 289 287 294 286 273 274 289 287 284 283 277 299 286 283 278 260 237 243 244 243 248
356 355 351 26 357 40 16 346 131 230 188 12 68 359 348 355 322 122 347 271 289 295 282 276 294 310 295 317 300 281 295 286 287 283 283 266 262 274 257 252 260 259 242 239 239
352 346 342 352 18 356 329 333 200 230 88 139 9 349 345 356 339 332 340 281 287 288 270 256 265 278 260 308 291 299 288 271 254 258 260 263 256 273 262 255 249 254 262 247 240
349 345 37 43 24 306 319 226 235 22 232 61 345 337 332 342 339 349 341 11 6 318 324 305 273 223 247 314 279 293 319 291 249 224 254 282 279 273 265 281 251 258 251 251 255
353 64 61 40 333 343 293 229 58 239 34 16 320 318 339 358 5 339 341 350 32 18 310 342 326 348 358 308 305 305 307 285 297 301 299 304 273 260 286 267 251 261 268 269 266
31 53 44 11 40 342 288 68 78 49 28 338 311 298 89 352 334 326 325 321 39 31 10 319 284 322 297 300 295 326 287 313 271 275 260 253 260 268 15 4 8 346 327 293 268
81 106 52 28 356 325 27 98 110 85 340 288 305 328 311 335 324 334 322 2 9 26 341 317 298 293 320 303 273 257 322 326 329 301 308 314 308 41 11 352 345 344 330 326 319
125 160 46 358 351 27 69 91 127 165 312 287 304 288 301 328 296 315 287 346 32 341 335 317 255 289 309 290 322 303 304 344 277 266 315 318 321 164 350 340 338 329 326 320 320
132 113 1 358 29 19 98 75 2 189 239 253 269 272 281 301 300 294 280 291 351 339 317 348 287 284 291 293 282 351 9 348 315 326 306 286 288 350 345 342 350 319 317 314 320
88 88 32 306 119 114 145 174 256 242 230 218 255 250 283 293 297 287 270 306 307 306 326 323 277 310 296 187 147 1 327 293 315 282 283 301 293 322 310 335 332 319 311 315 319
125 129 71 50 21 191 197 218 185 212 266 265 271 267 276 276 267 274 282 294 285 290 305 289 265 255 276 310 313 297 293 289 286 277 303 292 294 310 328 333 323 327 311 325 319
15 106 60 155 180 209 201 211 227 245 225 244 244 255 282 284 292 281 291 301 300 294 285 259 273 275 279 275 276 280 280 282 269 266 272 289 295 329 336 326 335 322 327 327 329
135 150 192 142 159 209 174 224 241 265 234 250 257 294 293 279 271 292 295 294 294 295 283 273 271 282 285 275 269 277 280 277 274 269 257 295 311 348 327 329 339 341 336 334 354
124 97 238 148 166 189 223 206 196 240 274 263 290 297 290 291 302 296 290 282 275 281 284 279 265 261 269 294 307 282 251 256 280 273 306 309 328 337 325 329 354 353 347 2 19